Weather History for Thermopolis, WY

Change the Weather History Date:

Wednesday, January 15, 2014

  Actual Average (KWRL) Record (KWRL)
Temperature  
Mean Temperature 36 °F 17 °F  
Max Temperature 41 °F 30 °F 55 °F (2000)
Min Temperature 30 °F 3 °F -21 °F (2007)
Degree Days  
Heating Degree Days 30 48  
Month to date heating degree days 730  
Since 1 July heating degree days 4093  
Cooling Degree Days 0 0  
Month to date cooling degree days 0  
Year to date cooling degree days 0  
Moisture  
Dew Point 13 °F    
Average Humidity 40    
Maximum Humidity 60    
Minimum Humidity 26    
Precipitation  
Precipitation 0.00 in 0.00 in 0.04 in (1989)
Month to date precipitation 0.11  
Year to date precipitation 0.11  
Sea Level Pressure  
Sea Level Pressure 30.21 in    
Wind  
Wind Speed 12 mph (West)    
Max Wind Speed 40 mph    
Max Gust Speed 46 mph    
Visibility 10 miles    
Events      
T = Trace of Precipitation, MM = Missing Value Source: NWS Daily Summary

Daily Weather History Graph

Daily Weather History Graph

Search for Another Location

Airport:

Trip Planner

Search our weather history database for the weather conditions in past years. The results will help you decide how hot, cold, wet, or windy it might be!

Date:

Astronomy

Jan. 15, 2014 Rise Set
Actual Time 7:42 AM MST 5:02 PM MST
Civil Twilight 7:11 AM MST 5:34 PM MST
Nautical Twilight 6:35 AM MST 6:09 PM MST
Astronomical Twilight 6:01 AM MST 6:43 PM MST
Moon 5:04 PM MST (1/15) 6:59 AM MST (1/15)
Length of Visible Light 10h 23m
Length of Day
9h 19m
Full, 100% of the Moon is Illuminated
Jan 15
Full
Jan 15
Full
Jan 23
Last Quarter
Jan 30
New
Feb 6
First Quarter

Hourly Weather History & Observations

Time (MST) Temp. Windchill Dew Point Humidity Pressure Visibility Wind Dir Wind Speed Gust Speed Precip Events Conditions
12:15 AM 33.8 °F 27.0 °F 17.6 °F 52% 30.28 in - South 8.1 mph - N/A   Clear
12:35 AM 30.2 °F 20.8 °F 17.6 °F 60% 30.28 in - SSW 11.5 mph - N/A   Clear
12:55 AM 32.0 °F 26.4 °F 17.6 °F 55% 30.28 in - SW 5.8 mph - N/A   Clear
1:15 AM 35.6 °F 31.7 °F 17.6 °F 48% 30.27 in - SSW 4.6 mph - N/A   Clear
1:35 AM 35.6 °F 29.9 °F 17.6 °F 48% 30.26 in - WSW 6.9 mph - N/A   Clear
1:55 AM 35.6 °F 32.8 °F 17.6 °F 48% 30.26 in - WSW 3.5 mph - N/A   Clear
2:15 AM 33.8 °F 28.6 °F 15.8 °F 48% 30.26 in - SSW 5.8 mph - N/A   Clear
2:35 AM 33.8 °F 28.6 °F 17.6 °F 52% 30.26 in - SW 5.8 mph - N/A   Clear
2:55 AM 35.6 °F 31.7 °F 17.6 °F 48% 30.26 in - SSW 4.6 mph - N/A   Clear
3:15 AM 33.8 °F 28.6 °F 17.6 °F 52% 30.24 in - South 5.8 mph - N/A   Clear
3:35 AM 35.6 °F 30.7 °F 17.6 °F 48% 30.24 in - South 5.8 mph - N/A   Clear
3:55 AM 35.6 °F 29.9 °F 15.8 °F 44% 30.22 in - South 6.9 mph - N/A   Clear
4:15 AM 35.6 °F 31.7 °F 15.8 °F 44% 30.22 in - South 4.6 mph - N/A   Clear
4:35 AM 35.6 °F 29.2 °F 15.8 °F 44% 30.23 in - SSW 8.1 mph - N/A   Clear
4:55 AM 37.4 °F 33.8 °F 15.8 °F 41% 30.22 in - SSW 4.6 mph - N/A   Clear
5:15 AM 37.4 °F 31.4 °F 15.8 °F 41% 30.22 in - West 8.1 mph - N/A   Clear
5:35 AM 37.4 °F 32.8 °F 15.8 °F 41% 30.20 in - SW 5.8 mph - N/A   Clear
5:55 AM 37.4 °F 31.4 °F 15.8 °F 41% 30.21 in - WSW 8.1 mph - N/A   Clear
6:15 AM 35.6 °F 28.6 °F 15.8 °F 44% 30.21 in - WSW 9.2 mph - N/A   Clear
6:35 AM 35.6 °F 26.6 °F 15.8 °F 44% 30.20 in - WSW 13.8 mph - N/A   Clear
6:55 AM 37.4 °F 27.8 °F 17.6 °F 45% 30.20 in 10.0 mi West 17.3 mph - N/A   Clear
7:15 AM 35.6 °F 26.6 °F 17.6 °F 48% 30.19 in 10.0 mi WSW 13.8 mph - N/A   Clear
7:35 AM 35.6 °F 27.1 °F 17.6 °F 48% 30.20 in 10.0 mi WSW 12.7 mph - N/A   Scattered Clouds
7:55 AM 37.4 °F 29.3 °F 17.6 °F 45% 30.20 in 10.0 mi WSW 12.7 mph - N/A   Mostly Cloudy
8:15 AM 37.4 °F 29.8 °F 19.4 °F 48% 30.21 in 10.0 mi West 11.5 mph - N/A   Overcast
8:35 AM 37.4 °F 30.8 °F 17.6 °F 45% 30.22 in 10.0 mi WNW 9.2 mph - N/A   Scattered Clouds
8:55 AM 37.4 °F 30.3 °F 17.6 °F 45% 30.22 in 10.0 mi WNW 10.4 mph - N/A   Clear
9:15 AM 37.4 °F 27.5 °F 17.6 °F 45% 30.22 in 10.0 mi WNW 18.4 mph 24.2 mph N/A   Clear
9:35 AM 37.4 °F 26.1 °F 15.8 °F 41% 30.22 in 10.0 mi WNW 24.2 mph - N/A   Clear
9:55 AM 37.4 °F 26.4 °F 12.2 °F 36% 30.22 in 10.0 mi WNW 23.0 mph 32.2 mph N/A   Clear
10:15 AM 35.6 °F 27.1 °F 12.2 °F 38% 30.23 in 10.0 mi WNW 12.7 mph 20.7 mph N/A   Clear
10:35 AM 37.4 °F 27.8 °F 12.2 °F 36% 30.22 in 10.0 mi West 17.3 mph - N/A   Clear
10:55 AM 33.8 °F 23.9 °F 15.8 °F 48% 30.22 in 10.0 mi SSW 15.0 mph - N/A   Clear
11:15 AM 35.6 °F 25.5 °F 14.0 °F 41% 30.20 in 10.0 mi SSW 17.3 mph - N/A   Clear
11:35 AM 37.4 °F 26.6 °F 14.0 °F 38% 30.18 in 10.0 mi SSW 21.9 mph - N/A   Clear
11:55 AM 37.4 °F 28.5 °F 12.2 °F 36% 30.17 in 10.0 mi SW 15.0 mph 20.7 mph N/A   Clear
12:15 PM 41.0 °F 34.3 °F 12.2 °F 31% 30.16 in 10.0 mi West 11.5 mph - N/A   Clear
12:35 PM 39.2 °F 30.5 °F 14.0 °F 36% 30.15 in 10.0 mi West 16.1 mph - N/A   Clear
12:55 PM 39.2 °F 29.6 °F 12.2 °F 33% 30.16 in 10.0 mi NW 19.6 mph 26.5 mph N/A   Clear
1:15 PM 37.4 °F 27.2 °F 14.0 °F 38% 30.16 in 10.0 mi NW 19.6 mph - N/A   Clear
1:35 PM 35.6 °F 24.8 °F 15.8 °F 44% 30.16 in 10.0 mi NW 19.6 mph - N/A   Clear
1:55 PM 35.6 °F 27.1 °F 17.6 °F 48% 30.17 in 10.0 mi WNW 12.7 mph - N/A   Clear
2:15 PM 35.6 °F 27.5 °F 14.0 °F 41% 30.18 in 10.0 mi WNW 11.5 mph - N/A   Clear
2:35 PM 37.4 °F 32.1 °F 12.2 °F 36% 30.18 in 10.0 mi West 6.9 mph - N/A   Clear
2:55 PM 37.4 °F 31.4 °F 12.2 °F 36% 30.20 in 10.0 mi WSW 8.1 mph - N/A   Clear
3:15 PM 41.0 °F 35.2 °F 12.2 °F 31% 30.19 in 10.0 mi WSW 9.2 mph 17.3 mph N/A   Clear
3:35 PM 39.2 °F 32.0 °F 12.2 °F 33% 30.19 in 10.0 mi WSW 11.5 mph 17.3 mph N/A   Clear
3:55 PM 41.0 °F 32.5 °F 8.6 °F 26% 30.19 in 10.0 mi West 17.3 mph 27.6 mph N/A   Clear
4:15 PM 37.4 °F 29.3 °F 10.4 °F 33% 30.20 in 10.0 mi West 12.7 mph 19.6 mph N/A   Clear
4:35 PM 39.2 °F 30.5 °F 8.6 °F 28% 30.20 in 10.0 mi West 16.1 mph 21.9 mph N/A   Clear
4:55 PM 37.4 °F 29.3 °F 8.6 °F 30% 30.20 in 10.0 mi West 12.7 mph - N/A   Clear
5:15 PM 37.4 °F 30.3 °F 8.6 °F 30% 30.20 in 10.0 mi West 10.4 mph - N/A   Clear
5:35 PM 37.4 °F 27.5 °F 8.6 °F 30% 30.20 in 10.0 mi WNW 18.4 mph 25.3 mph N/A   Clear
5:55 PM 37.4 °F 26.1 °F 8.6 °F 30% 30.20 in 10.0 mi WNW 24.2 mph 29.9 mph N/A   Clear
6:15 PM 35.6 °F 25.2 °F 8.6 °F 33% 30.20 in 10.0 mi WNW 18.4 mph - N/A   Clear
6:35 PM 33.8 °F 21.9 °F 10.4 °F 38% 30.20 in 10.0 mi WNW 21.9 mph - N/A   Clear
6:55 PM 33.8 °F 21.9 °F 10.4 °F 38% 30.20 in 10.0 mi WNW 21.9 mph - N/A   Clear
7:15 PM 33.8 °F 21.3 °F 8.6 °F 35% 30.18 in 10.0 mi NW 24.2 mph - N/A   Clear
7:35 PM 32.0 °F 17.4 °F 8.6 °F 38% 30.18 in 10.0 mi WNW 31.1 mph - N/A   Clear
7:55 PM 32.0 °F 15.8 °F 12.2 °F 44% 30.18 in 10.0 mi WNW 40.3 mph 46.0 mph N/A   Clear
8:15 PM 32.0 °F 17.4 °F 10.4 °F 41% 30.20 in 10.0 mi WNW 31.1 mph - N/A   Clear
8:35 PM 33.8 °F 21.0 °F 8.6 °F 35% 30.20 in 10.0 mi NW 25.3 mph 40.3 mph N/A   Clear
8:55 PM 32.0 °F 17.9 °F 8.6 °F 38% 30.20 in 10.0 mi WNW 28.8 mph - N/A   Clear
9:15 PM 33.8 °F 20.5 °F 8.6 °F 35% 30.21 in 10.0 mi WNW 27.6 mph - N/A   Clear
9:35 PM 33.8 °F 21.3 °F 8.6 °F 35% 30.22 in 10.0 mi WNW 24.2 mph - N/A   Clear
9:55 PM 33.8 °F 22.5 °F 6.8 °F 32% 30.23 in 10.0 mi WNW 19.6 mph - N/A   Clear
10:15 PM 33.8 °F 21.9 °F 6.8 °F 32% 30.23 in 10.0 mi WNW 21.9 mph - N/A   Clear
10:35 PM 32.0 °F 19.8 °F 6.8 °F 35% 30.23 in 10.0 mi WNW 20.7 mph - N/A   Clear
10:55 PM 33.8 °F 21.9 °F 5.0 °F 30% 30.24 in 10.0 mi NW 21.9 mph - N/A   Clear
11:15 PM 33.8 °F 22.8 °F 6.8 °F 32% 30.25 in 10.0 mi NW 18.4 mph - N/A   Clear
11:35 PM 32.0 °F 18.6 °F 10.4 °F 41% 30.25 in 10.0 mi NNW 25.3 mph - N/A   Clear
11:55 PM 30.2 °F 16.2 °F 10.4 °F 44% 30.25 in 10.0 mi NNW 25.3 mph - N/A   Clear